User: anonymous   Login
Location: Columbia
(38.9520°N, 92.3340°W)
Time: 16:04:07
(UTC-05:00)
Language:

Meteor 1-4 Rocket - Orbit

View from above orbital plane
View from above orbital plane
View from above satellite
View from above satellite

Ground track
Ground track

The orbit data is extracted from the following two-line orbital elements,

1  4394U 70037B   17178.89281407 +.00000968 +00000-0 +33316-4 0  9993
2  4394 081.2416 002.2689 0042002 087.5429 273.0614 15.28100401566871
Epoch (UTC): 27 June 2017 21:25:39
Eccentricity: 0.0042002
inclination: 81.2416°
perigee height: 452 km
apogee height: 510 km
right ascension of ascending node: 2.2689°
argument of perigee: 87.5429°
revolutions per day: 15.28100401
mean anomaly at epoch: 273.0614°
orbit number at epoch: 56687

The dashed part of the orbit path shows where the satellite is in the earth's shadow,  

DLR